Year,Month,Day,Hour,Minute,Value (Times are PST for temperature in C)
2011,08,02,00,00,13.30
2011,08,02,00,01,13.30
2011,08,02,00,02,13.20
2011,08,02,00,03,13.20
2011,08,02,00,04,13.20
2011,08,02,00,05,13.20
2011,08,02,00,06,13.10
2011,08,02,00,07,13.10
2011,08,02,00,08,13.10
2011,08,02,00,09,13.10
2011,08,02,00,10,13.00
2011,08,02,00,11,13.00
2011,08,02,00,12,13.00
2011,08,02,00,13,12.90
2011,08,02,00,14,12.90
2011,08,02,00,15,12.90
2011,08,02,00,16,12.90
2011,08,02,00,17,12.90
2011,08,02,00,18,12.90
2011,08,02,00,19,12.90
2011,08,02,00,20,13.00
2011,08,02,00,21,13.00
2011,08,02,00,22,13.00
2011,08,02,00,23,13.00
2011,08,02,00,24,13.00
2011,08,02,00,25,13.00
2011,08,02,00,26,13.00
2011,08,02,00,27,13.00
2011,08,02,00,28,13.00
2011,08,02,00,29,13.00
2011,08,02,00,30,13.00
2011,08,02,00,31,13.00
2011,08,02,00,32,13.00
2011,08,02,00,33,13.00
2011,08,02,00,34,12.90
2011,08,02,00,35,12.90
2011,08,02,00,36,12.90
2011,08,02,00,37,12.90
2011,08,02,00,38,12.90
2011,08,02,00,39,12.90
2011,08,02,00,40,12.90
2011,08,02,00,41,12.80
2011,08,02,00,42,12.90
2011,08,02,00,43,12.90
2011,08,02,00,44,12.90
2011,08,02,00,45,12.90
2011,08,02,00,46,12.90
2011,08,02,00,47,12.90
2011,08,02,00,48,12.90
2011,08,02,00,49,13.00
2011,08,02,00,50,13.00
2011,08,02,00,51,13.00
2011,08,02,00,52,13.00
2011,08,02,00,53,13.00
2011,08,02,00,54,13.00
2011,08,02,00,55,13.00
2011,08,02,00,56,13.00
2011,08,02,00,57,13.10
2011,08,02,00,58,13.10
2011,08,02,00,59,13.10
2011,08,02,01,00,13.10
2011,08,02,01,01,13.10
2011,08,02,01,02,13.10
2011,08,02,01,03,13.10
2011,08,02,01,04,13.10
2011,08,02,01,05,13.10
2011,08,02,01,06,13.10
2011,08,02,01,07,13.10
2011,08,02,01,08,13.10
2011,08,02,01,09,13.00
2011,08,02,01,10,13.00
2011,08,02,01,11,13.00
2011,08,02,01,12,12.90
2011,08,02,01,13,12.90
2011,08,02,01,14,12.80
2011,08,02,01,15,12.80
2011,08,02,01,16,12.80
2011,08,02,01,17,12.80
2011,08,02,01,18,12.80
2011,08,02,01,19,12.80
2011,08,02,01,20,12.70
2011,08,02,01,21,12.70
2011,08,02,01,22,12.70
2011,08,02,01,23,12.70
2011,08,02,01,24,12.70
2011,08,02,01,25,12.70
2011,08,02,01,26,12.70
2011,08,02,01,27,12.70
2011,08,02,01,28,12.70
2011,08,02,01,29,12.70
2011,08,02,01,30,12.70
2011,08,02,01,31,12.70
2011,08,02,01,32,12.70
2011,08,02,01,33,12.70
2011,08,02,01,34,12.70
2011,08,02,01,35,12.70
2011,08,02,01,36,12.70
2011,08,02,01,37,12.80
2011,08,02,01,38,12.80
2011,08,02,01,39,12.80
2011,08,02,01,40,12.80
2011,08,02,01,41,12.80
2011,08,02,01,42,12.80
2011,08,02,01,43,12.80
2011,08,02,01,44,12.80
2011,08,02,01,45,12.80
2011,08,02,01,46,12.80
2011,08,02,01,47,12.80
2011,08,02,01,48,12.80
2011,08,02,01,49,12.80
2011,08,02,01,50,12.80
2011,08,02,01,51,12.80
2011,08,02,01,52,12.80
2011,08,02,01,53,12.80
2011,08,02,01,54,12.90
2011,08,02,01,55,12.90
2011,08,02,01,56,12.90
2011,08,02,01,57,12.90
2011,08,02,01,58,12.90
2011,08,02,01,59,12.90
2011,08,02,02,00,12.90
2011,08,02,02,01,12.90
2011,08,02,02,02,12.80
2011,08,02,02,03,12.80
2011,08,02,02,04,12.80
2011,08,02,02,05,12.80
2011,08,02,02,06,12.80
2011,08,02,02,07,12.70
2011,08,02,02,08,12.70
2011,08,02,02,09,12.70
2011,08,02,02,10,12.70
2011,08,02,02,11,12.70
2011,08,02,02,12,12.70
2011,08,02,02,13,12.70
2011,08,02,02,14,12.70
2011,08,02,02,15,12.80
2011,08,02,02,16,12.80
2011,08,02,02,17,12.80
2011,08,02,02,18,12.80
2011,08,02,02,19,12.80
2011,08,02,02,20,12.80
2011,08,02,02,21,12.90
2011,08,02,02,22,12.90
2011,08,02,02,23,12.90
2011,08,02,02,24,12.90
2011,08,02,02,25,12.90
2011,08,02,02,26,12.90
2011,08,02,02,27,12.90
2011,08,02,02,28,12.90
2011,08,02,02,29,12.90
2011,08,02,02,30,12.90
2011,08,02,02,31,12.90
2011,08,02,02,32,12.90
2011,08,02,02,33,12.90
2011,08,02,02,34,12.90
2011,08,02,02,35,12.90
2011,08,02,02,36,12.90
2011,08,02,02,37,12.90
2011,08,02,02,38,12.90
2011,08,02,02,39,12.80
2011,08,02,02,40,12.80
2011,08,02,02,41,12.80
2011,08,02,02,42,12.80
2011,08,02,02,43,12.80
2011,08,02,02,44,12.80
2011,08,02,02,45,12.80
2011,08,02,02,46,12.80
2011,08,02,02,47,12.80
2011,08,02,02,48,12.90
2011,08,02,02,49,12.90
2011,08,02,02,50,12.90
2011,08,02,02,51,12.90
2011,08,02,02,52,12.90
2011,08,02,02,53,12.90
2011,08,02,02,54,12.90
2011,08,02,02,55,13.00
2011,08,02,02,56,13.00
2011,08,02,02,57,13.00
2011,08,02,02,58,13.00
2011,08,02,02,59,13.00
2011,08,02,03,00,13.00
2011,08,02,03,01,13.00
2011,08,02,03,02,13.00
2011,08,02,03,03,13.10
2011,08,02,03,04,13.10
2011,08,02,03,05,13.10
2011,08,02,03,06,13.20
2011,08,02,03,07,13.20
2011,08,02,03,08,13.20
2011,08,02,03,09,13.30
2011,08,02,03,10,13.30
2011,08,02,03,11,13.30
2011,08,02,03,12,13.30
2011,08,02,03,13,13.30
2011,08,02,03,14,13.30
2011,08,02,03,15,13.30
2011,08,02,03,16,13.30
2011,08,02,03,17,13.40
2011,08,02,03,18,13.40
2011,08,02,03,19,13.30
2011,08,02,03,20,13.30
2011,08,02,03,21,13.30
2011,08,02,03,22,13.20
2011,08,02,03,23,13.20
2011,08,02,03,24,13.20
2011,08,02,03,25,13.20
2011,08,02,03,26,13.20
2011,08,02,03,27,13.20
2011,08,02,03,28,13.20
2011,08,02,03,29,13.20
2011,08,02,03,30,13.20
2011,08,02,03,31,13.20
2011,08,02,03,32,13.20
2011,08,02,03,33,13.20
2011,08,02,03,34,13.20
2011,08,02,03,35,13.20
2011,08,02,03,36,13.10
2011,08,02,03,37,13.10
2011,08,02,03,38,13.10
2011,08,02,03,39,13.10
2011,08,02,03,40,13.10
2011,08,02,03,41,13.10
2011,08,02,03,42,13.10
2011,08,02,03,43,13.10
2011,08,02,03,44,13.10
2011,08,02,03,45,13.10
2011,08,02,03,46,13.10
2011,08,02,03,47,13.10
2011,08,02,03,48,13.10
2011,08,02,03,49,13.10
2011,08,02,03,50,13.10
2011,08,02,03,51,13.20
2011,08,02,03,52,13.20
2011,08,02,03,53,13.20
2011,08,02,03,54,13.30
2011,08,02,03,55,13.30
2011,08,02,03,56,13.30
2011,08,02,03,57,13.30
2011,08,02,03,58,13.40
2011,08,02,03,59,13.40
2011,08,02,04,00,13.40
2011,08,02,04,01,13.40
2011,08,02,04,02,13.40
2011,08,02,04,03,13.50
2011,08,02,04,04,13.50
2011,08,02,04,05,13.50
2011,08,02,04,06,13.50
2011,08,02,04,07,13.60
2011,08,02,04,08,13.60
2011,08,02,04,09,13.60
2011,08,02,04,10,13.60
2011,08,02,04,11,13.60
2011,08,02,04,12,13.60
2011,08,02,04,13,13.60
2011,08,02,04,14,13.60
2011,08,02,04,15,13.70
2011,08,02,04,16,13.70
2011,08,02,04,17,13.70
2011,08,02,04,18,13.70
2011,08,02,04,19,13.70
2011,08,02,04,20,13.70
2011,08,02,04,21,13.70
2011,08,02,04,22,13.70
2011,08,02,04,23,13.80
2011,08,02,04,24,13.80
2011,08,02,04,25,13.80
2011,08,02,04,26,13.80
2011,08,02,04,27,13.80
2011,08,02,04,28,13.80
2011,08,02,04,29,13.80
2011,08,02,04,30,13.80
2011,08,02,04,31,13.90
2011,08,02,04,32,13.90
2011,08,02,04,33,13.90
2011,08,02,04,34,13.90
2011,08,02,04,35,13.90
2011,08,02,04,36,13.90
2011,08,02,04,37,13.80
2011,08,02,04,38,13.70
2011,08,02,04,39,13.60
2011,08,02,04,40,13.60
2011,08,02,04,41,13.50
2011,08,02,04,42,13.50
2011,08,02,04,43,13.50
2011,08,02,04,44,13.50
2011,08,02,04,45,13.50
2011,08,02,04,46,13.50
2011,08,02,04,47,13.50
2011,08,02,04,48,13.50
2011,08,02,04,49,13.60
2011,08,02,04,50,13.60
2011,08,02,04,51,13.60
2011,08,02,04,52,13.60
2011,08,02,04,53,13.60
2011,08,02,04,54,13.60
2011,08,02,04,55,13.60
2011,08,02,04,56,13.60
2011,08,02,04,57,13.60
2011,08,02,04,58,13.60
2011,08,02,04,59,13.70
2011,08,02,05,00,13.70
2011,08,02,05,01,13.70
2011,08,02,05,02,13.70
2011,08,02,05,03,13.70
2011,08,02,05,04,13.70
2011,08,02,05,05,13.80
2011,08,02,05,06,13.80
2011,08,02,05,07,13.80
2011,08,02,05,08,13.80
2011,08,02,05,09,13.80
2011,08,02,05,10,13.80
2011,08,02,05,11,13.80
2011,08,02,05,12,13.80
2011,08,02,05,13,13.80
2011,08,02,05,14,13.80
2011,08,02,05,15,13.90
2011,08,02,05,16,13.90
2011,08,02,05,17,13.90
2011,08,02,05,18,13.90
2011,08,02,05,19,13.90
2011,08,02,05,20,14.00
2011,08,02,05,21,14.00
2011,08,02,05,22,14.00
2011,08,02,05,23,14.10
2011,08,02,05,24,14.10
2011,08,02,05,25,14.00
2011,08,02,05,26,14.00
2011,08,02,05,27,13.90
2011,08,02,05,28,13.90
2011,08,02,05,29,13.80
2011,08,02,05,30,13.80
2011,08,02,05,31,13.80
2011,08,02,05,32,13.80
2011,08,02,05,33,13.80
2011,08,02,05,34,13.80
2011,08,02,05,35,13.80
2011,08,02,05,36,13.90
2011,08,02,05,37,13.90
2011,08,02,05,38,13.90
2011,08,02,05,39,13.90
2011,08,02,05,40,13.90
2011,08,02,05,41,13.90
2011,08,02,05,42,13.90
2011,08,02,05,43,13.90
2011,08,02,05,44,13.90
2011,08,02,05,45,13.90
2011,08,02,05,46,13.90
2011,08,02,05,47,13.90
2011,08,02,05,48,13.90
2011,08,02,05,49,13.90
2011,08,02,05,50,13.90
2011,08,02,05,51,14.00
2011,08,02,05,52,14.00
2011,08,02,05,53,14.00
2011,08,02,05,54,14.00
2011,08,02,05,55,14.00
2011,08,02,05,56,13.90
2011,08,02,05,57,13.90
2011,08,02,05,58,13.90
2011,08,02,05,59,13.90
2011,08,02,06,00,13.90
2011,08,02,06,01,13.90
2011,08,02,06,02,13.90
2011,08,02,06,03,13.90
2011,08,02,06,04,13.90
2011,08,02,06,05,13.90
2011,08,02,06,06,13.90
2011,08,02,06,07,13.90
2011,08,02,06,08,13.90
2011,08,02,06,09,13.90
2011,08,02,06,10,13.90
2011,08,02,06,11,13.90
2011,08,02,06,12,13.90
2011,08,02,06,13,13.90
2011,08,02,06,14,13.90
2011,08,02,06,15,14.00
2011,08,02,06,16,14.00
2011,08,02,06,17,14.00
2011,08,02,06,18,14.10
2011,08,02,06,19,14.10
2011,08,02,06,20,14.10
2011,08,02,06,21,14.10
2011,08,02,06,22,14.20
2011,08,02,06,23,14.20
2011,08,02,06,24,14.20
2011,08,02,06,25,14.20
2011,08,02,06,26,14.20
2011,08,02,06,27,14.20
2011,08,02,06,28,14.20
2011,08,02,06,29,14.10
2011,08,02,06,30,14.10
2011,08,02,06,31,14.10
2011,08,02,06,32,14.10
2011,08,02,06,33,14.10
2011,08,02,06,34,14.10
2011,08,02,06,35,14.10
2011,08,02,06,36,14.10
2011,08,02,06,37,14.10
2011,08,02,06,38,14.10
2011,08,02,06,39,14.10
2011,08,02,06,40,14.00
2011,08,02,06,41,14.00
2011,08,02,06,42,14.00
2011,08,02,06,43,14.00
2011,08,02,06,44,14.00
2011,08,02,06,45,14.00
2011,08,02,06,46,14.00
2011,08,02,06,47,14.00
2011,08,02,06,48,14.00
2011,08,02,06,49,14.00
2011,08,02,06,50,14.00
2011,08,02,06,51,14.00
2011,08,02,06,52,14.00
2011,08,02,06,53,14.00
2011,08,02,06,54,14.00
2011,08,02,06,55,14.00
2011,08,02,06,56,14.00
2011,08,02,06,57,14.00
2011,08,02,06,58,14.00
2011,08,02,06,59,14.10
2011,08,02,07,00,14.10
2011,08,02,07,01,14.10
2011,08,02,07,02,14.10
2011,08,02,07,03,14.10
2011,08,02,07,04,14.10
2011,08,02,07,05,14.10
2011,08,02,07,06,14.10
2011,08,02,07,07,14.10
2011,08,02,07,08,14.10
2011,08,02,07,09,14.10
2011,08,02,07,10,14.10
2011,08,02,07,11,14.10
2011,08,02,07,12,14.10
2011,08,02,07,13,14.10
2011,08,02,07,14,14.10
2011,08,02,07,15,14.10
2011,08,02,07,16,14.10
2011,08,02,07,17,14.10
2011,08,02,07,18,14.10
2011,08,02,07,19,14.20
2011,08,02,07,20,14.20
2011,08,02,07,21,14.20
2011,08,02,07,22,14.20
2011,08,02,07,23,14.20
2011,08,02,07,24,14.20
2011,08,02,07,25,14.30
2011,08,02,07,26,14.30
2011,08,02,07,27,14.30
2011,08,02,07,28,14.30
2011,08,02,07,29,14.40
2011,08,02,07,30,14.40
2011,08,02,07,31,14.40
2011,08,02,07,32,14.50
2011,08,02,07,33,14.50
2011,08,02,07,34,14.50
2011,08,02,07,35,14.50
2011,08,02,07,36,14.50
2011,08,02,07,37,14.50
2011,08,02,07,38,14.50
2011,08,02,07,39,14.60
2011,08,02,07,40,14.60
2011,08,02,07,41,14.60
2011,08,02,07,42,14.60
2011,08,02,07,43,14.70
2011,08,02,07,44,14.70
2011,08,02,07,45,14.70
2011,08,02,07,46,14.70
2011,08,02,07,47,14.80
2011,08,02,07,48,14.80
2011,08,02,07,49,14.80
2011,08,02,07,50,14.90
2011,08,02,07,51,14.90
2011,08,02,07,52,14.90
2011,08,02,07,53,15.00
2011,08,02,07,54,15.00
2011,08,02,07,55,15.00
2011,08,02,07,56,15.00
2011,08,02,07,57,15.00
2011,08,02,07,58,15.00
2011,08,02,07,59,15.00
2011,08,02,08,00,15.00
2011,08,02,08,01,15.00
2011,08,02,08,02,15.00
2011,08,02,08,03,15.00
2011,08,02,08,04,15.00
2011,08,02,08,05,15.00
2011,08,02,08,06,15.10
2011,08,02,08,07,15.10
2011,08,02,08,08,15.20
2011,08,02,08,09,15.30
2011,08,02,08,10,15.30
2011,08,02,08,11,15.30
2011,08,02,08,12,15.40
2011,08,02,08,13,15.50
2011,08,02,08,14,15.50
2011,08,02,08,15,15.60
2011,08,02,08,16,15.60
2011,08,02,08,17,15.70
2011,08,02,08,18,15.70
2011,08,02,08,19,15.80
2011,08,02,08,20,15.80
2011,08,02,08,21,15.80
2011,08,02,08,22,15.90
2011,08,02,08,23,16.00
2011,08,02,08,24,16.10
2011,08,02,08,25,16.20
2011,08,02,08,26,16.20
2011,08,02,08,27,16.30
2011,08,02,08,28,16.30
2011,08,02,08,29,16.30
2011,08,02,08,30,16.30
2011,08,02,08,31,16.30
2011,08,02,08,32,16.40
2011,08,02,08,33,16.40
2011,08,02,08,34,16.40
2011,08,02,08,35,16.50
2011,08,02,08,36,16.50
2011,08,02,08,37,16.50
2011,08,02,08,38,16.60
2011,08,02,08,39,16.60
2011,08,02,08,40,16.60
2011,08,02,08,41,16.70
2011,08,02,08,42,16.70
2011,08,02,08,43,16.70
2011,08,02,08,44,16.80
2011,08,02,08,45,16.80
2011,08,02,08,46,16.80
2011,08,02,08,47,16.90
2011,08,02,08,48,16.90
2011,08,02,08,49,17.00
2011,08,02,08,50,17.00
2011,08,02,08,51,17.10
2011,08,02,08,52,17.10
2011,08,02,08,53,17.10
2011,08,02,08,54,17.10
2011,08,02,08,55,17.10
2011,08,02,08,56,17.20
2011,08,02,08,57,17.20
2011,08,02,08,58,17.20
2011,08,02,08,59,17.30
2011,08,02,09,00,17.30
2011,08,02,09,01,17.30
2011,08,02,09,02,17.40
2011,08,02,09,03,17.40
2011,08,02,09,04,17.40
2011,08,02,09,05,17.50
2011,08,02,09,06,17.60
2011,08,02,09,07,17.60
2011,08,02,09,08,17.70
2011,08,02,09,09,17.70
2011,08,02,09,10,17.70
2011,08,02,09,11,17.80
2011,08,02,09,12,17.80
2011,08,02,09,13,17.80
2011,08,02,09,14,17.80
2011,08,02,09,15,17.80
2011,08,02,09,16,17.90
2011,08,02,09,17,17.90
2011,08,02,09,18,18.00
2011,08,02,09,19,18.10
2011,08,02,09,20,18.10
2011,08,02,09,21,18.10
2011,08,02,09,22,18.10
2011,08,02,09,23,18.10
2011,08,02,09,24,18.10
2011,08,02,09,25,18.10
2011,08,02,09,26,18.10
2011,08,02,09,27,18.20
2011,08,02,09,28,18.20
2011,08,02,09,29,18.20
2011,08,02,09,30,18.30
2011,08,02,09,31,18.30
2011,08,02,09,32,18.30
2011,08,02,09,33,18.30
2011,08,02,09,34,18.40
2011,08,02,09,35,18.40
2011,08,02,09,36,18.40
2011,08,02,09,37,18.50
2011,08,02,09,38,18.50
2011,08,02,09,39,18.60
2011,08,02,09,40,18.60
2011,08,02,09,41,18.70
2011,08,02,09,42,18.70
2011,08,02,09,43,18.70
2011,08,02,09,44,18.80
2011,08,02,09,45,18.80
2011,08,02,09,46,18.80
2011,08,02,09,47,18.80
2011,08,02,09,48,18.80
2011,08,02,09,49,18.80
2011,08,02,09,50,18.80
2011,08,02,09,51,18.80
2011,08,02,09,52,18.90
2011,08,02,09,53,18.90
2011,08,02,09,54,18.90
2011,08,02,09,55,18.90
2011,08,02,09,56,18.90
2011,08,02,09,57,18.90
2011,08,02,09,58,19.00
2011,08,02,09,59,19.10
2011,08,02,10,00,19.10
2011,08,02,10,01,19.20
2011,08,02,10,02,19.20
2011,08,02,10,03,19.20
2011,08,02,10,04,19.30
2011,08,02,10,05,19.30
2011,08,02,10,06,19.30
2011,08,02,10,07,19.40
2011,08,02,10,08,19.50
2011,08,02,10,09,19.60
2011,08,02,10,10,19.60
2011,08,02,10,11,19.70
2011,08,02,10,12,19.70
2011,08,02,10,13,19.80
2011,08,02,10,14,19.80
2011,08,02,10,15,19.90
2011,08,02,10,16,19.90
2011,08,02,10,17,20.00
2011,08,02,10,18,20.00
2011,08,02,10,19,20.00
2011,08,02,10,20,20.00
2011,08,02,10,21,19.90
2011,08,02,10,22,19.80
2011,08,02,10,23,19.80
2011,08,02,10,24,19.80
2011,08,02,10,25,19.80
2011,08,02,10,26,19.80
2011,08,02,10,27,19.80
2011,08,02,10,28,19.90
2011,08,02,10,29,19.90
2011,08,02,10,30,20.00
2011,08,02,10,31,20.00
2011,08,02,10,32,20.00
2011,08,02,10,33,20.10
2011,08,02,10,34,20.20
2011,08,02,10,35,20.20
2011,08,02,10,36,20.30
2011,08,02,10,37,20.30
2011,08,02,10,38,20.30
2011,08,02,10,39,20.30
2011,08,02,10,40,20.30
2011,08,02,10,41,20.40
2011,08,02,10,42,20.40
2011,08,02,10,43,20.50
2011,08,02,10,44,20.50
2011,08,02,10,45,20.50
2011,08,02,10,46,20.50
2011,08,02,10,47,20.60
2011,08,02,10,48,20.60
2011,08,02,10,49,20.50
2011,08,02,10,50,20.40
2011,08,02,10,51,20.20
2011,08,02,10,52,20.00
2011,08,02,10,53,19.80
2011,08,02,10,54,19.70
2011,08,02,10,55,19.60
2011,08,02,10,56,19.50
2011,08,02,10,57,19.50
2011,08,02,10,58,19.50
2011,08,02,10,59,19.50
2011,08,02,11,00,19.60
2011,08,02,11,01,19.60
2011,08,02,11,02,19.70
2011,08,02,11,03,19.70
2011,08,02,11,04,19.70
2011,08,02,11,05,19.70
2011,08,02,11,06,19.70
2011,08,02,11,07,19.70
2011,08,02,11,08,19.80
2011,08,02,11,09,19.90
2011,08,02,11,10,20.00
2011,08,02,11,11,20.10
2011,08,02,11,12,20.20
2011,08,02,11,13,20.20
2011,08,02,11,14,20.20
2011,08,02,11,15,20.40
2011,08,02,11,16,20.50
2011,08,02,11,17,20.60
2011,08,02,11,18,20.70
2011,08,02,11,19,20.70
2011,08,02,11,20,20.70
2011,08,02,11,21,20.80
2011,08,02,11,22,20.80
2011,08,02,11,23,20.80
2011,08,02,11,24,20.80
2011,08,02,11,25,20.80
2011,08,02,11,26,20.80
2011,08,02,11,27,20.80
2011,08,02,11,28,20.90
2011,08,02,11,29,21.00
2011,08,02,11,30,21.20
2011,08,02,11,31,21.40
2011,08,02,11,32,21.50
2011,08,02,11,33,21.60
2011,08,02,11,34,21.80
2011,08,02,11,35,21.90
2011,08,02,11,36,22.00
2011,08,02,11,37,22.00
2011,08,02,11,38,22.00
2011,08,02,11,39,22.10
2011,08,02,11,40,22.10
2011,08,02,11,41,22.20
2011,08,02,11,42,22.30
2011,08,02,11,43,22.30
2011,08,02,11,44,22.40
2011,08,02,11,45,22.60
2011,08,02,11,46,22.60
2011,08,02,11,47,22.70
2011,08,02,11,48,22.70
2011,08,02,11,49,22.80
2011,08,02,11,50,22.90
2011,08,02,11,51,23.00
2011,08,02,11,52,23.00
2011,08,02,11,53,23.10
2011,08,02,11,54,22.90
2011,08,02,11,55,22.80
2011,08,02,11,56,22.50
2011,08,02,11,57,22.40
2011,08,02,11,58,22.30
2011,08,02,11,59,22.40
2011,08,02,12,00,22.60
2011,08,02,12,01,22.50
2011,08,02,12,02,22.40
2011,08,02,12,03,22.40
2011,08,02,12,04,22.50
2011,08,02,12,05,22.50
2011,08,02,12,06,22.50
2011,08,02,12,07,22.50
2011,08,02,12,08,22.50
2011,08,02,12,09,22.40
2011,08,02,12,10,22.50
2011,08,02,12,11,22.60
2011,08,02,12,12,22.60
2011,08,02,12,13,22.70
2011,08,02,12,14,22.70
2011,08,02,12,15,22.70
2011,08,02,12,16,22.70
2011,08,02,12,17,22.80
2011,08,02,12,18,22.80
2011,08,02,12,19,22.80
2011,08,02,12,20,22.80
2011,08,02,12,21,22.80
2011,08,02,12,22,22.90
2011,08,02,12,23,23.10
2011,08,02,12,24,23.10
2011,08,02,12,25,23.10
2011,08,02,12,26,23.00
2011,08,02,12,27,23.00
2011,08,02,12,28,23.00
2011,08,02,12,29,23.10
2011,08,02,12,30,23.10
2011,08,02,12,31,23.20
2011,08,02,12,32,23.30
2011,08,02,12,33,23.40
2011,08,02,12,34,23.30
2011,08,02,12,35,23.40
2011,08,02,12,36,23.30
2011,08,02,12,37,23.40
2011,08,02,12,38,23.30
2011,08,02,12,39,23.20
2011,08,02,12,40,23.20
2011,08,02,12,41,23.20
2011,08,02,12,42,23.20
2011,08,02,12,43,23.10
2011,08,02,12,44,23.20
2011,08,02,12,45,23.20
2011,08,02,12,46,23.20
2011,08,02,12,47,23.20
2011,08,02,12,48,23.20
2011,08,02,12,49,23.20
2011,08,02,12,50,23.30
2011,08,02,12,51,23.40
2011,08,02,12,52,23.40
2011,08,02,12,53,23.40
2011,08,02,12,54,23.40
2011,08,02,12,55,23.40
2011,08,02,12,56,23.60
2011,08,02,12,57,23.60
2011,08,02,12,58,23.60
2011,08,02,12,59,23.50
2011,08,02,13,00,23.60
2011,08,02,13,01,23.60
2011,08,02,13,02,23.60
2011,08,02,13,03,23.70
2011,08,02,13,04,23.50
2011,08,02,13,05,23.40
2011,08,02,13,06,23.30
2011,08,02,13,07,23.30
2011,08,02,13,08,23.20
2011,08,02,13,09,23.20
2011,08,02,13,10,23.10
2011,08,02,13,11,22.90
2011,08,02,13,12,22.90
2011,08,02,13,13,22.80
2011,08,02,13,14,22.80
2011,08,02,13,15,22.80
2011,08,02,13,16,22.80
2011,08,02,13,17,22.90
2011,08,02,13,18,22.90
2011,08,02,13,19,22.90
2011,08,02,13,20,22.90
2011,08,02,13,21,22.90
2011,08,02,13,22,22.90
2011,08,02,13,23,22.80
2011,08,02,13,24,22.70
2011,08,02,13,25,22.60
2011,08,02,13,26,22.50
2011,08,02,13,27,22.40
2011,08,02,13,28,22.40
2011,08,02,13,29,22.40
2011,08,02,13,30,22.50
2011,08,02,13,31,22.60
2011,08,02,13,32,22.80
2011,08,02,13,33,22.80
2011,08,02,13,34,22.90
2011,08,02,13,35,23.00
2011,08,02,13,36,23.10
2011,08,02,13,37,23.10
2011,08,02,13,38,23.10
2011,08,02,13,39,23.10
2011,08,02,13,40,23.00
2011,08,02,13,41,22.90
2011,08,02,13,42,22.70
2011,08,02,13,43,22.70
2011,08,02,13,44,22.60
2011,08,02,13,45,22.60
2011,08,02,13,46,22.60
2011,08,02,13,47,22.50
2011,08,02,13,48,22.40
2011,08,02,13,49,22.40
2011,08,02,13,50,22.20
2011,08,02,13,51,22.20
2011,08,02,13,52,22.00
2011,08,02,13,53,21.90
2011,08,02,13,54,21.90
2011,08,02,13,55,22.10
2011,08,02,13,56,22.20
2011,08,02,13,57,22.30
2011,08,02,13,58,22.30
2011,08,02,13,59,22.30
2011,08,02,14,00,22.20
2011,08,02,14,01,22.10
2011,08,02,14,02,22.00
2011,08,02,14,03,22.10
2011,08,02,14,04,22.20
2011,08,02,14,05,22.40
2011,08,02,14,06,22.50
2011,08,02,14,07,22.60
2011,08,02,14,08,22.60
2011,08,02,14,09,22.60
2011,08,02,14,10,22.70
2011,08,02,14,11,22.90
2011,08,02,14,12,22.90
2011,08,02,14,13,22.80
2011,08,02,14,14,22.80
2011,08,02,14,15,22.90
2011,08,02,14,16,22.70
2011,08,02,14,17,22.60
2011,08,02,14,18,22.60
2011,08,02,14,19,22.50
2011,08,02,14,20,22.60
2011,08,02,14,21,22.70
2011,08,02,14,22,22.80
2011,08,02,14,23,22.80
2011,08,02,14,24,22.80
2011,08,02,14,25,22.90
2011,08,02,14,26,23.00
2011,08,02,14,27,23.10
2011,08,02,14,28,23.10
2011,08,02,14,29,23.10
2011,08,02,14,30,23.10
2011,08,02,14,31,23.00
2011,08,02,14,32,23.10
2011,08,02,14,33,23.00
2011,08,02,14,34,23.00
2011,08,02,14,35,23.10
2011,08,02,14,36,23.20
2011,08,02,14,37,23.10
2011,08,02,14,38,23.10
2011,08,02,14,39,23.00
2011,08,02,14,40,22.90
2011,08,02,14,41,23.00
2011,08,02,14,42,23.00
2011,08,02,14,43,22.90
2011,08,02,14,44,22.90
2011,08,02,14,45,23.00
2011,08,02,14,46,23.10
2011,08,02,14,47,23.30
2011,08,02,14,48,23.40
2011,08,02,14,49,23.30
2011,08,02,14,50,23.30
2011,08,02,14,51,23.30
2011,08,02,14,52,23.30
2011,08,02,14,53,23.30
2011,08,02,14,54,23.30
2011,08,02,14,55,23.20
2011,08,02,14,56,23.20
2011,08,02,14,57,23.10
2011,08,02,14,58,23.10
2011,08,02,14,59,23.10
2011,08,02,15,00,23.00
2011,08,02,15,01,23.00
2011,08,02,15,02,23.00
2011,08,02,15,03,23.10
2011,08,02,15,04,23.10
2011,08,02,15,05,23.00
2011,08,02,15,06,22.90
2011,08,02,15,07,23.00
2011,08,02,15,08,23.20
2011,08,02,15,09,23.40
2011,08,02,15,10,23.50
2011,08,02,15,11,23.70
2011,08,02,15,12,23.90
2011,08,02,15,13,24.10
2011,08,02,15,14,24.20
2011,08,02,15,15,24.10
2011,08,02,15,16,23.90
2011,08,02,15,17,23.80
2011,08,02,15,18,23.70
2011,08,02,15,19,23.70
2011,08,02,15,20,23.60
2011,08,02,15,21,23.50
2011,08,02,15,22,23.50
2011,08,02,15,23,23.60
2011,08,02,15,24,23.80
2011,08,02,15,25,23.90
2011,08,02,15,26,23.90
2011,08,02,15,27,23.90
2011,08,02,15,28,24.00
2011,08,02,15,29,24.10
2011,08,02,15,30,24.20
2011,08,02,15,31,24.20
2011,08,02,15,32,24.10
2011,08,02,15,33,24.10
2011,08,02,15,34,24.10
2011,08,02,15,35,23.90
2011,08,02,15,36,23.70
2011,08,02,15,37,23.70
2011,08,02,15,38,23.70
2011,08,02,15,39,23.70
2011,08,02,15,40,23.80
2011,08,02,15,41,23.90
2011,08,02,15,42,24.00
2011,08,02,15,43,24.10
2011,08,02,15,44,24.10
2011,08,02,15,45,24.10
2011,08,02,15,46,24.10
2011,08,02,15,47,24.00
2011,08,02,15,48,23.90
2011,08,02,15,49,23.90
2011,08,02,15,50,23.90
2011,08,02,15,51,24.00
2011,08,02,15,52,24.10
2011,08,02,15,53,24.20
2011,08,02,15,54,24.20
2011,08,02,15,55,24.00
2011,08,02,15,56,23.90
2011,08,02,15,57,23.90
2011,08,02,15,58,23.90
2011,08,02,15,59,23.90
2011,08,02,16,00,24.00
2011,08,02,16,01,24.10
2011,08,02,16,02,24.10
2011,08,02,16,03,24.00
2011,08,02,16,04,23.90
2011,08,02,16,05,23.70
2011,08,02,16,06,23.60
2011,08,02,16,07,23.50
2011,08,02,16,08,23.60
2011,08,02,16,09,23.70
2011,08,02,16,10,23.70
2011,08,02,16,11,23.60
2011,08,02,16,12,23.50
2011,08,02,16,13,23.40
2011,08,02,16,14,23.40
2011,08,02,16,15,23.30
2011,08,02,16,16,23.30
2011,08,02,16,17,23.20
2011,08,02,16,18,23.20
2011,08,02,16,19,23.20
2011,08,02,16,20,23.30
2011,08,02,16,21,23.30
2011,08,02,16,22,23.20
2011,08,02,16,23,23.30
2011,08,02,16,24,23.30
2011,08,02,16,25,23.30
2011,08,02,16,26,23.30
2011,08,02,16,27,23.20
2011,08,02,16,28,23.20
2011,08,02,16,29,23.30
2011,08,02,16,30,23.30
2011,08,02,16,31,23.40
2011,08,02,16,32,23.40
2011,08,02,16,33,23.40
2011,08,02,16,34,23.40
2011,08,02,16,35,23.40
2011,08,02,16,36,23.30
2011,08,02,16,37,23.20
2011,08,02,16,38,23.20
2011,08,02,16,39,23.30
2011,08,02,16,40,23.30
2011,08,02,16,41,23.40
2011,08,02,16,42,23.40
2011,08,02,16,43,23.40
2011,08,02,16,44,23.50
2011,08,02,16,45,23.60
2011,08,02,16,46,23.70
2011,08,02,16,47,23.70
2011,08,02,16,48,23.50
2011,08,02,16,49,23.40
2011,08,02,16,50,23.30
2011,08,02,16,51,23.30
2011,08,02,16,52,23.30
2011,08,02,16,53,23.20
2011,08,02,16,54,23.20
2011,08,02,16,55,23.20
2011,08,02,16,56,23.20
2011,08,02,16,57,23.10
2011,08,02,16,58,23.00
2011,08,02,16,59,22.90
2011,08,02,17,00,22.90
2011,08,02,17,01,22.90
2011,08,02,17,02,22.80
2011,08,02,17,03,22.80
2011,08,02,17,04,22.90
2011,08,02,17,05,22.90
2011,08,02,17,06,22.90
2011,08,02,17,07,22.90
2011,08,02,17,08,22.90
2011,08,02,17,09,22.90
2011,08,02,17,10,22.90
2011,08,02,17,11,22.90
2011,08,02,17,12,22.90
2011,08,02,17,13,22.90
2011,08,02,17,14,22.90
2011,08,02,17,15,22.90
2011,08,02,17,16,22.90
2011,08,02,17,17,22.90
2011,08,02,17,18,22.90
2011,08,02,17,19,22.80